Overview Statistics Trail Chart Weather Telemetry Raw packets
 

This is the latest recevied weather packets stored in our database for station/object 4S6DRJ-13. If no packets are shown the sender has not sent any weather packets the latest 10 day(s).

<< 559 560 561 562 563 564 565 >>
Time Temp. Humidity Pressure Rain* Wind** Luminosity Snow
1787585985 27.78° C 84% 1011.2 hPa 0 mm 1.79 m/s, 242° 0 W/m² -
1787585924 27.78° C 84% 1011.4 hPa 0 mm 1.34 m/s, 290° 0 W/m² -
1787585863 27.78° C 84% 1011.3 hPa 0 mm 1.34 m/s, 230° 0 W/m² -
1787585802 27.78° C 84% 1011.3 hPa 0 mm 1.79 m/s, 243° 0 W/m² -
1787585741 27.78° C 84% 1011.3 hPa 0 mm 1.79 m/s, 230° 0 W/m² -
1787585680 27.78° C 84% 1011.3 hPa 0 mm 0.89 m/s, 247° 0 W/m² -
1787585620 27.78° C 84% 1011.4 hPa 0 mm 1.79 m/s, 214° 0 W/m² -
1787585558 27.78° C 84% 1011.3 hPa 0 mm 1.79 m/s, 237° 0 W/m² -
1787585497 27.78° C 84% 1011.2 hPa 0 mm 0.89 m/s, 178° 0 W/m² -
1787585436 27.78° C 85% 1011.2 hPa 0 mm 2.24 m/s, 258° 0 W/m² -
1787585375 27.78° C 85% 1011.3 hPa 0 mm 1.79 m/s, 241° 0 W/m² -
1787585314 27.78° C 85% 1011.3 hPa 0 mm 0.89 m/s, 213° 0 W/m² -
1787585253 27.78° C 85% 1011.2 hPa 0 mm 1.34 m/s, 216° 0 W/m² -
1787585192 27.78° C 85% 1011.3 hPa 0 mm 1.79 m/s, 237° 0 W/m² -
1787585131 27.78° C 85% 1011.2 hPa 0 mm 0.89 m/s, 290° 0 W/m² -
1787585070 27.78° C 85% 1011.1 hPa 0 mm 1.79 m/s, 218° 0 W/m² -
1787585010 27.78° C 85% 1011.1 hPa 0 mm 0.89 m/s, 342° 0 W/m² -
1787584948 27.78° C 85% 1011 hPa 0 mm 1.79 m/s, 215° 0 W/m² -
1787584888 27.78° C 85% 1011.2 hPa 0 mm 1.34 m/s, 225° 0 W/m² -
1787584826 27.78° C 85% 1011 hPa 0 mm 1.79 m/s, 183° 0 W/m² -
1787584765 27.78° C 85% 1011 hPa 0 mm 1.79 m/s, 190° 0 W/m² -
1787584704 27.78° C 85% 1011 hPa 0 mm 1.79 m/s, 322° 0 W/m² -
1787584643 27.78° C 85% 1011.1 hPa 0 mm 0.89 m/s, 207° 0 W/m² -
1787584583 27.78° C 85% 1011.1 hPa 0 mm 0.45 m/s, 248° 0 W/m² -
1787584521 27.78° C 85% 1010.9 hPa 0 mm 0.89 m/s, 239° 0 W/m² -

* Rain latest hour (hover to see other rain measurements)
** Current wind speed in m/s (hover to see current wind gust speed)